Погода в Борисовке

Россия / Белгородская область     50°36′28″N   36°00′32″E
темп.,
°C
ветер,
м/с
пор.,
м/с
влажн.,
%
обл.,
%
осадки,
мм/ч
давл.,
гПа
погр.,
м
25 февраля, чт
чт2500:00−7ююз599597 0.4 1033320
03:00−5юз489699 0.6 1032285
06:00−5юз4895100 0.2 1030274
09:00−2зюз5997100 0.3 1029394
12:000зюз5999100 0.0 1028316
15:00+1зюз612100100 0.0 1026286
18:00+2з613100100 0.1 1024334
21:00+2з410100100 0.2 1024264
26 февраля, пт
пт2600:00+2з511100100 0.0 1024263
03:00+1з41099100 0.1 1024228
06:00+2з49100100 0.0 1023192
09:00+2з51099100 0.0 1022227
12:00+2зюз612100100 0.0 1020301
15:00+3зюз714100100 0.0 1019412
18:00+2з61298100 0.0 1017343
21:00+2зсз51098100 0.1 1017289
27 февраля, сб
сб2700:00+1з599999 0.0 1015268
03:00+1з51098100 0.0 1014325
06:00+1з51097100 0.1 1012312
09:00+1з61198100 0.1 1011524
12:00+1зсз61098100 0.1 1011535
15:00+1з61098100 0.4 1011552
18:00+1зсз61197100 0.1 1010480
21:00+1зсз51097100 0.1 1011467
28 февраля, вс
вс2800:000ссз51098100 0.1 1011508
03:000сз5109299 0.3 1014573
06:00−1с5990100 0.2 1015784
09:00−3с6108698 0.3 1017864
12:00−2с6881100 0.1 1019773
15:00−2ссз6882100 0.1 1020780
18:00−2с5885100 0.1 1021825
21:00−2ссз2696100 0.1 1023352
1 марта, пн
пн100:00−3ссз239788 0.1 102484
03:00−3с249688 0.1 1026207
06:00−4с259584 0.0 1027234
09:00−3ссв468091 0.1 1029785
12:00−2с457696 0.0 1031857
15:00−2с347598 0.1 1031810
18:00−3ссз248372 0.0 1031136
21:00−4ссз239040 0.0 103390